Weather observations for the past three days for
Denton Enterprise Airport
Imperial (Metric)
Date Time (cdt) Wind (mph) Vis. (mi.) Weather Sky Cond. Temperature (ºF) Relative Humidity Wind Chill (°F) Heat Index (°F) Pressure Precipitation (in)
Air Dwpt 6 hour altimeter (in) sea level (mb) 1 hr 3 hr 6 hr
Max. Min.
15 02:53 S 9 10.00 Fair CLR 82 69.1 65% 85 30 1014.7
15 01:53 S 9 10.00 Fair CLR 82.9 69.1 63% 87 30.01 1015.2
15 00:53 S 13 10.00 Fair CLR 84.9 69.1 97 84.9 59% 89 30.01 1015.3
14 23:53 S 16 10.00 Fair CLR 87.1 70 57% 92 30.02 1015.3
14 22:53 S 13 10.00 Fair CLR 89.1 68 50% 93 30.02 1015.3
14 21:53 S 13 10.00 Fair CLR 90 66.9 47% 93 29.99 1014.6
14 20:53 S 13 10.00 Fair CLR 91.9 68 46% 96 29.99 1014.4
14 19:53 S 14 10.00 Fair CLR 93.9 69.1 44% 99 29.99 1014.3
14 18:53 SE 12 10.00 Fair CLR 97 70 100 91.9 42% 104 29.98 1014.3
14 17:53 SW 13 10.00 A Few Clouds FEW080 99 64.9 33% 102 29.99 1014.3
14 16:53 S 14 10.00 A Few Clouds FEW070 99 68 37% 105 30 1014.7
14 15:53 SW 13 G 22 10.00 A Few Clouds FEW065 98.1 69.1 39% 104 30.01 1015.3
14 14:53 SW 15 G 24 10.00 A Few Clouds FEW060 97 70 42% 104 30.05 1016.4
14 13:53 SW 14 10.00 Partly Cloudy SCT055 95 71.1 46% 102 30.07 1017.2
14 12:53 SW 9 G 23 10.00 Fair CLR 93 72 93.9 77 50% 101 30.09 1017.9
14 11:53 S 10 10.00 Fair CLR 91.9 73.9 56% 102 30.12 1018.9
14 10:53 SW 8 10.00 Fair CLR 87.1 73 63% 95 30.13 1019.4
14 09:53 SW 12 10.00 Fair CLR 86 73.9 67% 94 30.14 1019.7
14 08:53 SW 10 10.00 Fair CLR 82 73 74% 87 30.15 1019.8
14 07:53 S 9 10.00 Fair CLR 80.1 73 79% 84 30.14 1019.5
14 06:53 S 8 10.00 Fair CLR 77 73 82 75.9 88% 78 30.12 1019.0
14 05:53 S 7 10.00 Fair CLR 77 73 88% 78 30.11 1018.6
14 04:53 S 8 10.00 Fair CLR 77 73 88% 78 30.11 1018.5
14 03:53 S 9 10.00 Fair CLR 78.1 72 82% 80 30.1 1018.3
14 02:53 S 10 10.00 Fair CLR 79 72 79% 82 30.11 1018.4
14 01:53 S 12 10.00 Fair CLR 80.1 72 76% 84 30.12 1018.8
14 00:53 S 9 10.00 Fair CLR 82 72 93.9 82 72% 87 30.12 1018.8
13 23:53 S 12 10.00 Fair CLR 82.9 72 70% 88 30.11 1018.7
13 22:53 S 12 10.00 Fair CLR 84 72 67% 90 30.11 1018.5
13 21:53 S 13 10.00 Fair CLR 84.9 71.1 63% 90 30.1 1018.3
13 20:53 S 21 G 30 10.00 Fair and Breezy CLR 87.1 71.1 59% 93 30.1 1018.1
13 19:53 S 12 10.00 Fair CLR 91.9 69.1 47% 97 30.08 1017.5
13 18:53 S 14 10.00 Mostly Cloudy BKN070 93.9 69.1 97 90 44% 99 30.08 1017.4
13 17:53 S 13 G 20 10.00 Fair CLR 95 68 41% 100 30.07 1017.3
13 16:53 S 9 G 20 10.00 A Few Clouds FEW060 95 68 41% 100 30.08 1017.4
13 15:53 SE 9 10.00 A Few Clouds FEW060 95 70 44% 101 30.09 1017.9
13 14:53 S 12 G 22 10.00 Partly Cloudy SCT055 93.9 69.1 44% 99 30.11 1018.7
13 13:53 S 13 G 20 10.00 Mostly Cloudy BKN050 91.9 70 49% 98 30.13 1019.4
13 12:53 S 14 G 20 10.00 Partly Cloudy SCT045 90 70 91.9 75 52% 95 30.15 1020.0
13 11:53 SW 12 10.00 A Few Clouds FEW042 89.1 71.1 55% 95 30.16 1020.3
13 10:53 S 9 G 21 10.00 Fair CLR 87.1 71.1 59% 93 30.16 1020.3
13 09:53 S 12 10.00 Fair CLR 84 71.1 65% 89 30.17 1020.5
13 08:53 S 12 10.00 Fair CLR 81 71.1 72% 85 30.17 1020.6
13 07:53 S 8 10.00 Fair CLR 77 71.1 82% 79 30.16 1020.2
13 06:53 S 6 10.00 Fair CLR 75 71.1 81 73 88% 75 30.14 1019.7
13 05:53 S 6 10.00 Fair CLR 73.9 71.1 91% 30.13 1019.3
13 04:53 S 7 10.00 Fair CLR 75.9 71.1 85% 76 30.11 1018.6
13 03:53 S 7 10.00 Fair CLR 77 71.1 82% 79 30.11 1018.5
13 02:53 S 9 10.00 Fair CLR 78.1 71.1 79% 80 30.11 1018.4
13 01:53 S 9 10.00 Fair CLR 79 70 74% 82 30.1 1018.3
13 00:53 S 12 10.00 Fair CLR 80.1 69.1 95 80.1 69% 83 30.11 1018.4
12 23:53 S 10 10.00 Fair CLR 82 68 63% 85 30.1 1018.3
12 22:53 S 10 10.00 Fair CLR 82.9 66.9 59% 86 30.09 1017.8
12 21:53 S 10 10.00 Fair CLR 84.9 69.1 59% 89 30.06 1016.9
12 20:53 S 13 10.00 A Few Clouds FEW060 88 71.1 57% 94 30.05 1016.4
12 19:53 SE 10 10.00 Fair CLR 93 68 44% 97 30.03 1016.0
12 18:53 SE 12 10.00 Fair CLR 95 66 98.1 91.9 39% 98 30.02 1015.6
12 17:53 SE 12 10.00 Fair CLR 96.1 66 37% 100 30.02 1015.6
12 16:53 S 13 G 22 10.00 Fair CLR 97 66 36% 101 30.03 1015.9
12 15:53 S 6 G 22 10.00 Fair CLR 95 64.9 37% 98 30.04 1016.2
12 14:53 SE 10 10.00 Fair CLR 95 64.9 37% 98 30.05 1016.6
12 13:53 SE 8 G 20 10.00 Fair CLR 93.9 66 40% 97 30.07 1017.1
12 12:53 S 8 G 20 10.00 A Few Clouds FEW060 93 66.9 93.9 73.9 42% 97 30.08 1017.5
12 11:53 Vrbl 6 10.00 Fair CLR 91 66.9 45% 94 30.09 1017.8
12 10:53 S 9 10.00 Fair CLR 90 66.9 47% 93 30.09 1017.8
12 09:53 S 10 10.00 Fair CLR 88 69.1 54% 92 30.09 1017.9
12 08:53 S 9 10.00 Fair CLR 84 72 67% 90 30.09 1017.8
12 07:53 S 5 9.00 Fair CLR 79 71.1 77% 82 30.07 1017.3
12 06:53 Calm 10.00 Fair CLR 73.9 69.1 82 71.1 85% 30.06 1016.8
12 05:53 SE 3 10.00 Fair CLR 73.9 68 82% 30.04 1016.1
12 04:53 Calm 10.00 Fair CLR 72 66.9 84% 30.02 1015.7
12 03:53 S 6 10.00 Fair CLR 75 68 79% 76 30.01 1015.2
Date Time (cdt) Wind (mph) Vis. (mi.) Weather Sky Cond. Air Dwpt Max. Min. Relative Humidity Wind Chill (°F) Heat Index (°F) altimeter (in) sea level (mb) 1 hr 3 hr 6 hr
6 hour
Temperature (ºF) Pressure Precipitation (in)